Tracking 25710 objects as of 7-Jul-2022
HD Live streaming from Space Station
objects crossing your sky now

FENGYUN 1C DEB

Track FENGYUN 1C DEB now!
10-day predictions


NORAD ID: 31631
Int'l Code: 1999-025CAM
Perigee: 737.3 km
Apogee: 998.9 km
Inclination: 99.4 °
Period: 102.2 minutes
Semi major axis: 7239 km
RCS: 0.0204 m2 (small)
Launch date: May 10, 1999
Source: People's Republic of China (PRC)
Launch site: Taiyaun Space Center, China (TSC)

Note: This is SATELLITE DEBRIS
aabbcc
Your satellite tracking list
Your tracking list is empty




NASA's NSSDC Master Catalog

Two Line Element Set (TLE):
1 31631U 99025CAM 22186.21624701  .00003040  00000-0  15177-2 0  9991
2 31631  99.3617 341.9658 0180629 358.1043   1.9421 14.09535635459902
Source of the keplerian elements: AFSPC